This demonstration page uses our WeatherBlox Daily Observations layout. Learn more.

Left ArrowRight Arrow

41.86663, -103.66717

Hourly Observations for May 2, 2021

Temp ( °F °C ) Dew Point ( °F °C ) Humidity (%) Winds ( mph kmh ) Pressure ( in mb ) Visibility ( mi km ) Precip ( " mm )
12:53 am 00:53 Clear 61 16.1 46 7.8 58 58 ENE 16 26 29.47 998 10 16.0934 N/A
1:32 am 01:32 Cloudy with Light Rain 60 15.6 47 8.3 62 62 NW 8 13 29.58 1002 10 16.0934 0.001 0.001
1:53 am 01:53 Mostly Cloudy with Light Rain 57 13.9 50 10 78 78 N 10 17 29.53 1000 10 16.0934 0.01 0.254
2:53 am 02:53 Mostly Clear 56 13.3 49 9.4 77 77 VRB 3 6 29.49 999 10 16.0934 0.001 0.001
3:53 am 03:53 Mostly Cloudy 56 13.3 50 10 81 81 S 5 7 29.52 1000 10 16.0934 N/A
4:53 am 04:53 Mostly Cloudy 54 12.2 49 9.4 83 83 N 5 7 29.48 998 10 16.0934 N/A
5:53 am 05:53 Cloudy 55 12.8 49 9.4 80 80 NW 8 13 29.51 999 10 16.0934 N/A
6:53 am 06:53 Mostly Sunny 55 12.8 49 9.4 80 80 VRB 3 6 29.52 1000 10 16.0934 0.001 0.001
7:53 am 07:53 Mostly Sunny 55 12.8 50 10 83 83 SSE 5 7 29.52 1000 10 16.0934 N/A
8:53 am 08:53 Mostly Sunny 62 16.7 50 10 65 65 SSE 7 11 29.5 999 10 16.0934 N/A
9:53 am 09:53 Sunny 68 20 48 8.9 49 49 NW 13 20 29.51 999 10 16.0934 N/A
10:53 am 10:53 Mostly Sunny 71 21.7 47 8.3 42 42 NW 12 19 29.5 999 10 16.0934 N/A
11:24 am 11:24 Partly Cloudy with Nearby Thunderstorms 72 22 46 8 41 41 NNW 17 28 29.43 997 10 16.0934 N/A
11:39 am 11:39 Sunny 70 21.1 45 7.2 41 41 NW 17 28 29.44 997 10 16.0934 N/A
11:53 am 11:53 Sunny 72 22.2 44 6.7 37 37 NNW 14 22 29.52 1000 10 16.0934 N/A
12:53 pm 12:53 Sunny 69 20.6 45 7.2 42 42 NW 24 39 29.53 1000 10 16.0934 N/A
1:53 pm 13:53 Sunny 67 19.4 45 7.2 45 45 NNW 22 35 29.56 1001 10 16.0934 N/A
2:53 pm 14:53 Sunny 68 20 46 7.8 45 45 NNW 18 30 29.56 1001 10 16.0934 N/A
3:53 pm 15:53 Cloudy 65 18.3 45 7.2 49 49 NNW 24 39 29.58 1002 10 16.0934 N/A
4:53 pm 16:53 Cloudy 61 16.1 45 7.2 56 56 N 29 46 29.61 1003 10 16.0934 N/A
5:53 pm 17:53 Mostly Cloudy 58 14.4 46 7.8 65 65 N 23 37 29.65 1004 10 16.0934 N/A
6:32 pm 18:32 Cloudy 54 12.2 45 7.2 72 72 NNE 29 46 29.68 1005 10 16.0934 N/A
6:53 pm 18:53 Cloudy 53 11.7 43 6.1 69 69 NNE 28 44 29.7 1006 10 16.0934 N/A
7:04 pm 19:04 Cloudy 53 11.7 41 5 64 64 NNE 28 44 29.7 1006 10 16.0934 N/A
7:53 pm 19:53 Cloudy 51 10.6 42 5.6 71 71 NNE 23 37 29.74 1007 10 16.0934 N/A
8:53 pm 20:53 Cloudy 51 10.6 41 5 69 69 NNE 18 30 29.73 1007 10 16.0934 N/A
9:53 pm 21:53 Cloudy 49 9.4 40 4.4 71 71 N 23 37 29.75 1007 10 16.0934 N/A
11:53 pm 23:53 Cloudy 49 9.4 39 3.9 69 69 N 15 24 29.8 1009 10 16.0934 N/A

Powered by AerisWeather